Skip Page Navigation
NASA JPL Caltech
NASA Logo - Jet Propulsion Laboratory + View the NASA Portal
+ Near-Earth Object (NEO) Program
Search JPL
JPL Home Earth Solar System Stars & Galaxies Technology
JPL Solar System Dynamics
BODIES ORBITS EPHEMERIDES TOOLS PHYSICAL DATA DISCOVERY FAQ SITE MAP
JPL Small-Body Database Browser
Search: [ help ]  
(2012 VP76)
Classification: Amor [NEO]          SPK-ID: 3617710
Ephemeris | Orbit Diagram | Orbital Elements | Physical Parameters | Close-Approach Data ]

[ hide orbit diagram ]
Orbit Diagram
Note: Make sure you have Java enabled on your browser to see the applet. This applet is provided as a 3D orbit visualization tool. The applet was implemented using 2-body methods, and hence should not be used for determining accurate long-term trajectories (over several years or decades) or planetary encounter circumstances. For accurate long-term ephemerides, please instead use our Horizons system.
Orbit Viewer

Additional Notes: the orbits shown in the applet are color coded. The planets are white lines, and the asteroid/comet is a blue line. The bright white line indicates the portion of the orbit that is above the ecliptic plane, and the darker portion is below the ecliptic plane. Likewise for the asteroid/comet orbit, the light blue indicates the portion above the ecliptic plane, and the dark blue the portion below the ecliptic plane.

Orbit Viewer applet originally written and kindly provided by Osamu Ajiki (AstroArts), and further modified by Ron Baalke (JPL).


Orbital Elements at Epoch 2456400.5 (2013-Apr-18.0) TDB
Reference: JPL 16 (heliocentric ecliptic J2000)
 Element Value Uncertainty (1-sigma)   Units 
e .4405135000647916 6.2817e-05  
a 1.911453722230784 0.00023282 AU
q 1.069432552839027 1.0186e-05 AU
i 5.889776963667404 0.00064585 deg
node 243.9572819018525 0.0001352 deg
peri 168.2932013648737 0.0003659 deg
M 56.99305707389144 0.010325 deg
tp 2456247.685853263817
(2012-Nov-16.18585326)
0.00028226 JED
period 965.2595535224806
2.64
0.17635
0.0004828
d
yr
n .3729566816368378 6.8139e-05 deg/d
Q 2.75347489162254 0.00033537 AU
  Orbit Determination Parameters
   # obs. used (total)      120  
   data-arc span      55 days  
   first obs. used      2012-11-13  
   last obs. used      2013-01-07  
   planetary ephem.      DE405  
   SB-pert. ephem.      SB405-CPV-2  
   condition code      5  
   fit RMS      .44851  
   data source      ORB  
   producer      Otto Matic  
   solution date      2013-Jan-08 00:56:16  

Additional Information
 Earth MOID = .0825108 AU 
 T_jup = 3.805 
[ show covariance matrix ]

Ephemeris | Orbit Diagram | Orbital Elements | Physical Parameters | Close-Approach Data ]

Physical Parameter Table
Parameter Symbol Value Units Sigma Reference Notes
absolute magnitude H 23.615 mag .44683 16 autocmod 2.5b

[ show close-approach data ]
Ephemeris | Orbit Diagram | Orbital Elements | Physical Parameters | Close-Approach Data ]
ABOUT SSD CREDITS/AWARDS PRIVACY/COPYRIGHT GLOSSARY LINKS
FirstGov 2013-May-24 18:43 UT
(server date/time)  
NASA Home Page
Site Manager:   Donald K. Yeomans
Webmaster  Alan B. Chamberlin